Location: Kuppenheim
(48.8299°N, 8.2568°E)
Time: 14:45:02
(UTC+00:00)

Cosmos 2208 Rocket - Pass Details

Date: 20 June 2021
Orbit: 754 x 805 km, 74.0° (Epoch: 30 July)

Event Time Altitude Azimuth Distance (km) Brightness Sun altitude
Exits shadow 01:16:33 19° 187° (S) 1,844 5.4 -13.8°
Maximum altitude 01:20:30 66° 109° (ESE) 875 4.3 -13.5°
Drops below altitude 10° 01:25:55 10° 28° (NNE) 2,397 8.1 -13.1°
Sets 01:28:21 0° 26° (NNE) 3,332 9.4 -12.9°
